KB7STN Weather Reports


time (UTC)temp
C
wind
direction
speed
KPH
gust
KPH
rain 1hr
cm
rain 24hr
cm
rain mn
cm
humidity
%
barometer
mb
20260905142513 21 219 0.0 0.0 0.00 0.00 0.00 30 1019.3
20260905142013 21 219 0.0 0.0 0.00 0.00 0.00 31 1019.3
20260905141513 20 219 0.0 0.0 0.00 0.00 0.00 31 1019.3
20260905141013 20 219 0.0 0.0 0.00 0.00 0.00 33 1019.3
20260905140513 20 219 0.0 0.0 0.00 0.00 0.00 34 1019.2
20260905140013 19 219 0.0 0.0 0.00 0.00 0.00 32 1019.1
20260905135513 18 219 0.0 0.0 0.00 0.00 0.00 34 1019.1
20260905135013 18 219 0.0 0.0 0.00 0.00 0.00 34 1019.1
20260905134513 18 219 0.0 0.0 0.00 0.00 0.00 32 1018.9
20260905134013 17 219 0.0 0.0 0.00 0.00 0.00 32 1019.0
20260905133513 17 219 0.0 0.0 0.00 0.00 0.00 32 1018.9
20260905133013 17 219 0.0 0.0 0.00 0.00 0.00 32 1018.9
20260905132513 17 219 0.0 0.0 0.00 0.00 0.00 33 1018.8
20260905132013 18 219 0.0 0.0 0.00 0.00 0.00 29 1018.7
20260905131513 18 219 0.0 0.0 0.00 0.00 0.00 28 1018.7
20260905131013 18 219 1.6 0.0 0.00 0.00 0.00 27 1018.6
20260905130513 19 219 1.6 6.4 0.00 0.00 0.00 26 1018.6
20260905130013 19 219 1.6 4.8 0.00 0.00 0.00 26 1018.3
20260905125513 19 219 1.6 4.8 0.00 0.00 0.00 26 1018.3
20260905125013 19 219 1.6 8.0 0.00 0.00 0.00 25 1018.2
20260905124513 19 221 1.6 9.7 0.00 0.00 0.00 25 1018.2
20260905124013 19 224 1.6 11.3 0.00 0.00 0.00 26 1018.1
20260905123513 19 226 0.0 6.4 0.00 0.00 0.00 25 1018.0
20260905123013 19 226 0.0 3.2 0.00 0.00 0.00 26 1018.1
20260905122513 19 226 0.0 4.8 0.00 0.00 0.00 26 1018.0
20260905122013 19 226 1.6 6.4 0.00 0.00 0.00 26 1018.1
20260905121513 19 226 1.6 4.8 0.00 0.00 0.00 26 1018.0
20260905121013 19 227 0.0 8.0 0.00 0.00 0.00 26 1018.0
20260905120513 19 228 0.0 3.2 0.00 0.00 0.00 26 1018.1
20260905120013 19 228 1.6 4.8 0.00 0.00 0.00 26 1018.1
20260905115513 19 228 0.0 1.6 0.00 0.00 0.00 26 1018.1
20260905115013 19 228 0.0 4.8 0.00 0.00 0.00 26 1018.1
20260905114513 19 228 0.0 4.8 0.00 0.00 0.00 26 1018.1
20260905114013 19 228 0.0 9.7 0.00 0.00 0.00 28 1018.1
20260905113513 18 228 0.0 6.4 0.00 0.00 0.00 27 1017.9
20260905113013 18 228 0.0 6.4 0.00 0.00 0.00 29 1018.0
20260905112514 18 228 0.0 0.0 0.00 0.00 0.00 31 1018.1
20260905112014 19 228 0.0 0.0 0.00 0.00 0.00 33 1018.0
20260905111514 19 228 0.0 0.0 0.00 0.00 0.00 31 1018.0
20260905111014 19 228 0.0 0.0 0.00 0.00 0.00 27 1017.9
20260905110514 19 228 0.0 0.0 0.00 0.00 0.00 27 1017.9
20260905110014 19 228 0.0 3.2 0.00 0.00 0.00 27 1017.8
20260905105514 19 228 0.0 4.8 0.00 0.00 0.00 28 1017.8
20260905105014 19 228 0.0 1.6 0.00 0.00 0.00 31 1017.7
20260905104514 19 228 0.0 0.0 0.00 0.00 0.00 32 1017.8
20260905104014 20 228 0.0 0.0 0.00 0.00 0.00 30 1017.7
20260905103514 20 228 0.0 1.6 0.00 0.00 0.00 30 1017.7
20260905103014 20 228 0.0 4.8 0.00 0.00 0.00 28 1017.8
20260905102514 20 228 0.0 3.2 0.00 0.00 0.00 26 1017.8
20260905102014 20 228 0.0 0.0 0.00 0.00 0.00 27 1017.8
20260905101514 20 228 0.0 3.2 0.00 0.00 0.00 28 1017.8
20260905101014 20 228 0.0 4.8 0.00 0.00 0.00 29 1017.7
20260905100514 20 229 0.0 0.0 0.00 0.00 0.00 30 1017.6
20260905100014 20 229 0.0 6.4 0.00 0.00 0.00 31 1017.5
20260905095514 20 229 0.0 0.0 0.00 0.00 0.00 33 1017.5
20260905095014 20 229 0.0 3.2 0.00 0.00 0.00 32 1017.5
20260905094514 20 229 0.0 3.2 0.00 0.00 0.00 34 1017.4
20260905094014 20 229 0.0 9.7 0.00 0.00 0.00 32 1017.3
20260905093514 20 229 0.0 4.8 0.00 0.00 0.00 31 1017.3
20260905093014 21 229 0.0 4.8 0.00 0.00 0.00 31 1017.3
20260905092514 21 229 0.0 1.6 0.00 0.00 0.00 29 1017.3
20260905092014 21 229 0.0 1.6 0.00 0.00 0.00 29 1017.3
20260905091514 21 229 0.0 9.7 0.00 0.00 0.00 29 1017.2
20260905091014 21 233 0.0 6.4 0.00 0.00 0.00 29 1017.2
20260905090514 21 233 0.0 3.2 0.00 0.00 0.00 29 1017.2
20260905090014 21 233 0.0 8.0 0.00 0.00 0.00 30 1017.1
20260905085514 21 233 0.0 0.0 0.00 0.00 0.00 30 1017.2
20260905085014 21 233 0.0 3.2 0.00 0.00 0.00 30 1017.2
20260905084514 21 233 0.0 4.8 0.00 0.00 0.00 29 1017.2
20260905084014 21 233 0.0 3.2 0.00 0.00 0.00 29 1017.2
20260905083514 21 233 0.0 0.0 0.00 0.00 0.00 29 1017.1
20260905083014 21 233 0.0 3.2 0.00 0.00 0.00 29 1017.0
20260905082514 21 233 0.0 6.4 0.00 0.00 0.00 28 1017.1
20260905082014 21 233 0.0 3.2 0.00 0.00 0.00 28 1016.9
20260905081514 21 233 0.0 4.8 0.00 0.00 0.00 28 1016.9
20260905081014 21 233 0.0 8.0 0.00 0.00 0.00 28 1017.0
20260905080514 21 234 0.0 3.2 0.00 0.00 0.00 28 1016.9
20260905080014 21 234 0.0 4.8 0.00 0.00 0.00 29 1016.9
20260905075514 21 234 0.0 4.8 0.00 0.00 0.00 29 1016.9
20260905075014 21 234 0.0 4.8 0.00 0.00 0.00 29 1016.9
20260905074514 21 234 0.0 0.0 0.00 0.00 0.00 29 1016.9
20260905074014 21 234 0.0 3.2 0.00 0.00 0.00 29 1016.9
20260905073514 22 234 0.0 3.2 0.00 0.00 0.00 29 1016.7
20260905073014 22 234 0.0 4.8 0.00 0.00 0.00 28 1016.7
20260905072514 22 234 0.0 0.0 0.00 0.00 0.00 29 1016.6
20260905072014 22 234 0.0 0.0 0.00 0.00 0.00 29 1016.4
20260905071514 22 234 0.0 0.0 0.00 0.00 0.00 29 1016.5
20260905071014 22 234 0.0 4.8 0.00 0.00 0.00 28 1016.3
20260905070514 22 234 0.0 8.0 0.00 0.00 0.00 28 1016.3
20260905070014 22 234 0.0 8.0 0.00 0.00 0.00 27 1016.3
20260905065514 23 235 0.0 4.8 0.00 0.00 0.00 27 1016.0
20260905065014 23 233 1.6 6.4 0.00 0.00 0.00 26 1016.0
20260905064514 23 233 1.6 8.0 0.00 0.00 0.00 26 1016.0
20260905064014 23 235 1.6 8.0 0.00 0.00 0.00 26 1015.9
20260905063514 23 221 1.6 11.3 0.00 0.00 0.00 27 1015.8
20260905063014 23 221 1.6 8.0 0.00 0.00 0.00 26 1015.9
20260905062514 23 225 0.0 4.8 0.00 0.00 0.00 27 1015.9
20260905062014 23 225 0.0 4.8 0.00 0.00 0.00 27 1015.7
20260905061514 23 225 1.6 8.0 0.00 0.00 0.00 27 1015.7
20260905061014 23 226 1.6 6.4 0.00 0.00 0.00 27 1015.6
20260905060514 23 226 1.6 12.9 0.00 0.00 0.00 27 1015.5
20260905060014 23 235 0.0 6.4 0.00 0.00 0.00 28 1015.5
20260905055514 23 238 0.0 8.0 0.00 0.00 0.00 28 1015.5
20260905055014 23 236 0.0 3.2 0.00 0.00 0.00 28 1015.4
20260905054514 23 237 0.0 9.7 0.00 0.00 0.00 27 1015.4
20260905054014 23 235 0.0 3.2 0.00 0.00 0.00 28 1015.3
20260905053514 23 234 0.0 4.8 0.00 0.00 0.00 27 1015.3
20260905053014 23 236 0.0 8.0 0.00 0.00 0.00 27 1015.3
20260905052514 23 236 0.0 3.2 0.00 0.00 0.00 27 1015.3
20260905052014 23 236 0.0 4.8 0.00 0.00 0.00 27 1015.3
20260905051514 23 236 0.0 6.4 0.00 0.00 0.00 27 1015.1
20260905051014 23 236 0.0 8.0 0.00 0.00 0.00 27 1015.2
20260905050514 23 236 0.0 11.3 0.00 0.00 0.00 27 1015.2
20260905050014 23 246 0.0 3.2 0.00 0.00 0.00 26 1015.1
20260905045514 23 246 0.0 3.2 0.00 0.00 0.00 26 1015.1
20260905045014 23 246 0.0 1.6 0.00 0.00 0.00 26 1015.1
20260905044514 23 246 0.0 3.2 0.00 0.00 0.00 26 1015.2
20260905044014 23 246 0.0 3.2 0.00 0.00 0.00 26 1015.3
20260905043514 23 246 0.0 8.0 0.00 0.00 0.00 25 1015.2
20260905043014 23 246 0.0 1.6 0.00 0.00 0.00 25 1015.1
20260905042514 23 246 0.0 0.0 0.00 0.00 0.00 25 1015.1
20260905042014 23 246 0.0 0.0 0.00 0.00 0.00 25 1015.0
20260905041514 23 246 0.0 0.0 0.00 0.00 0.00 25 1015.0
20260905041014 23 246 0.0 0.0 0.00 0.00 0.00 24 1014.9
20260905040514 23 246 0.0 0.0 0.00 0.00 0.00 24 1014.8
20260905040014 23 246 0.0 0.0 0.00 0.00 0.00 25 1014.7
20260905035514 23 246 0.0 0.0 0.00 0.00 0.00 25 1014.6
20260905035014 23 246 0.0 0.0 0.00 0.00 0.00 24 1014.6
20260905034514 23 246 0.0 0.0 0.00 0.00 0.00 24 1014.5
20260905034014 23 246 0.0 0.0 0.00 0.00 0.00 24 1014.5
20260905033514 23 246 0.0 0.0 0.00 0.00 0.00 24 1014.4
20260905033014 23 246 0.0 0.0 0.00 0.00 0.00 24 1014.4
20260905032514 24 246 0.0 0.0 0.00 0.00 0.00 23 1014.5
20260905032014 24 246 0.0 4.8 0.00 0.00 0.00 23 1014.3
20260905031514 24 247 0.0 4.8 0.00 0.00 0.00 23 1014.3
20260905031014 24 247 0.0 0.0 0.00 0.00 0.00 24 1014.2
20260905030514 24 247 0.0 0.0 0.00 0.00 0.00 24 1014.3
20260905030014 25 247 0.0 0.0 0.00 0.00 0.00 24 1014.2
20260905025514 25 247 0.0 0.0 0.00 0.00 0.00 23 1014.1
20260905025014 25 247 0.0 0.0 0.00 0.00 0.00 23 1014.0
20260905024514 25 247 0.0 0.0 0.00 0.00 0.00 23 1013.9
20260905024014 26 247 0.0 0.0 0.00 0.00 0.00 23 1013.8
20260905023514 26 247 0.0 0.0 0.00 0.00 0.00 22 1013.7
20260905022514 26 275 1.6 17.7 0.00 0.00 0.00 22 1013.8
20260905022014 26 236 1.6 8.0 0.00 0.00 0.00 22 1013.7
20260905021514 26 240 0.0 9.7 0.00 0.00 0.00 22 1013.6
20260905021014 26 214 0.0 0.0 0.00 0.00 0.00 23 1013.5
20260905020515 26 213 0.0 3.2 0.00 0.00 0.00 23 1013.5
20260905020014 26 215 0.0 4.8 0.00 0.00 0.00 23 1013.5
20260905015514 26 223 0.0 8.0 0.00 0.00 0.00 22 1013.3
20260905015014 26 225 1.6 6.4 0.00 0.00 0.00 22 1013.5
20260905014514 26 218 1.6 11.3 0.00 0.00 0.00 22 1013.4
20260905014014 26 217 1.6 8.0 0.00 0.00 0.00 22 1013.5
20260905013514 26 192 1.6 11.3 0.00 0.00 0.00 22 1013.4
20260905013014 27 184 1.6 12.9 0.00 0.00 0.00 21 1013.5
20260905012515 27 234 1.6 9.7 0.00 0.00 0.00 22 1013.5
20260905012014 27 258 0.0 8.0 0.00 0.00 0.00 22 1013.5
20260905011514 27 254 1.6 6.4 0.00 0.00 0.00 22 1013.4
20260905011015 27 255 1.6 4.8 0.00 0.00 0.00 22 1013.4
20260905010514 27 255 1.6 8.0 0.00 0.00 0.00 22 1013.4
20260905010015 27 256 1.6 6.4 0.00 0.00 0.00 22 1013.3
20260905005515 27 256 0.0 9.7 0.00 0.00 0.00 22 1013.4
20260905005015 27 216 1.6 4.8 0.00 0.00 0.00 22 1013.3
20260905004515 27 216 3.2 11.3 0.00 0.00 0.00 21 1013.3
20260905004015 27 213 3.2 9.7 0.00 0.00 0.00 21 1013.4
20260905003515 27 240 1.6 16.1 0.00 0.00 0.00 21 1013.3
20260905003015 27 280 1.6 9.7 0.00 0.00 0.00 21 1013.3
20260905002515 27 220 1.6 9.7 0.00 0.00 0.00 21 1013.3
20260905002015 27 225 3.2 11.3 0.00 0.00 0.00 21 1013.3
20260905001515 27 236 3.2 11.3 0.00 0.00 0.00 20 1013.4
20260905001015 27 192 3.2 8.0 0.00 0.00 0.00 21 1013.3
20260905000515 28 218 3.2 9.7 0.00 0.00 0.00 20 1013.4
20260905000015 28 243 3.2 14.5 0.00 0.00 0.00 20 1013.3
20260904235515 28 211 1.6 11.3 0.00 0.00 0.00 19 1013.1
20260904235015 28 249 1.6 9.7 0.00 0.00 0.00 20 1013.3
20260904234515 28 252 3.2 9.7 0.00 0.00 0.00 19 1013.4
20260904234015 28 259 3.2 11.3 0.00 0.00 0.00 19 1013.3
20260904233515 28 281 3.2 14.5 0.00 0.00 0.00 19 1013.4
20260904233015 28 203 4.8 8.0 0.00 0.00 0.00 19 1013.2
20260904232515 28 211 4.8 16.1 0.00 0.00 0.00 19 1013.4
20260904232015 28 204 3.2 16.1 0.00 0.00 0.00 19 1013.4
20260904231515 28 206 3.2 12.9 0.00 0.00 0.00 18 1013.5
20260904231015 28 217 3.2 6.4 0.00 0.00 0.00 19 1013.4
20260904230515 28 217 4.8 8.0 0.00 0.00 0.00 18 1013.5
20260904230015 29 237 3.2 9.7 0.00 0.00 0.00 18 1013.6
20260904225515 29 221 3.2 6.4 0.00 0.00 0.00 18 1013.6
20260904225015 29 223 3.2 16.1 0.00 0.00 0.00 18 1013.7
20260904224515 29 281 4.8 16.1 0.00 0.00 0.00 18 1013.6
20260904224015 29 229 3.2 9.7 0.00 0.00 0.00 18 1013.5
20260904223515 28 238 3.2 8.0 0.00 0.00 0.00 18 1013.6
20260904223015 28 242 4.8 9.7 0.00 0.00 0.00 18 1013.6
20260904222515 28 191 3.2 14.5 0.00 0.00 0.00 18 1013.8
20260904222015 28 211 4.8 8.0 0.00 0.00 0.00 18 1013.7
20260904221515 28 217 4.8 12.9 0.00 0.00 0.00 17 1013.9
20260904221015 29 234 3.2 11.3 0.00 0.00 0.00 17 1014.0
20260904220515 29 250 3.2 8.0 0.00 0.00 0.00 18 1014.1
20260904220015 28 229 3.2 14.5 0.00 0.00 0.00 18 1014.0
20260904215515 29 200 3.2 11.3 0.00 0.00 0.00 17 1014.1
20260904215015 29 222 4.8 8.0 0.00 0.00 0.00 18 1014.2
20260904214515 28 221 4.8 12.9 0.00 0.00 0.00 17 1014.2
20260904214015 29 243 3.2 12.9 0.00 0.00 0.00 18 1014.2
20260904213515 28 213 3.2 9.7 0.00 0.00 0.00 18 1014.3
20260904213015 28 215 3.2 9.7 0.00 0.00 0.00 18 1014.3
20260904212515 28 204 3.2 14.5 0.00 0.00 0.00 17 1014.3
20260904212015 28 237 3.2 12.9 0.00 0.00 0.00 17 1014.4
20260904211515 28 220 3.2 12.9 0.00 0.00 0.00 17 1014.4
20260904211015 28 208 3.2 14.5 0.00 0.00 0.00 17 1014.5
20260904210515 28 264 3.2 8.0 0.00 0.00 0.00 18 1014.7
20260904210015 28 261 3.2 11.3 0.00 0.00 0.00 18 1014.7
20260904205515 28 272 3.2 20.9 0.00 0.00 0.00 18 1014.8
20260904205015 28 263 1.6 9.7 0.00 0.00 0.00 17 1014.8
20260904204515 28 270 1.6 6.4 0.00 0.00 0.00 17 1014.7
20260904204015 28 206 1.6 8.0 0.00 0.00 0.00 17 1014.8
20260904203515 28 277 3.2 12.9 0.00 0.00 0.00 18 1014.9
20260904203015 28 209 3.2 12.9 0.00 0.00 0.00 19 1014.8
20260904202515 28 256 3.2 12.9 0.00 0.00 0.00 18 1014.7
20260904202015 27 233 3.2 12.9 0.00 0.00 0.00 19 1015.0
20260904201515 27 236 3.2 14.5 0.00 0.00 0.00 18 1015.0
20260904201015 27 240 3.2 9.7 0.00 0.00 0.00 18 1015.1
20260904200515 27 249 3.2 14.5 0.00 0.00 0.00 18 1015.2
20260904200015 27 242 3.2 14.5 0.00 0.00 0.00 18 1015.3
20260904195515 27 257 3.2 19.3 0.00 0.00 0.00 17 1015.4
20260904195015 27 190 3.2 14.5 0.00 0.00 0.00 18 1015.4
20260904194515 27 191 4.8 11.3 0.00 0.00 0.00 20 1015.1
20260904194015 27 210 3.2 17.7 0.00 0.00 0.00 19 1015.4
20260904193515 27 225 3.2 17.7 0.00 0.00 0.00 20 1015.4
20260904193015 27 220 3.2 16.1 0.00 0.00 0.00 21 1015.3
20260904192515 27 233 3.2 20.9 0.00 0.00 0.00 20 1015.4
20260904192015 27 259 1.6 8.0 0.00 0.00 0.00 21 1015.4
20260904191515 27 266 3.2 6.4 0.00 0.00 0.00 20 1015.5
20260904191015 27 261 3.2 11.3 0.00 0.00 0.00 20 1015.5
20260904190515 27 211 3.2 9.7 0.00 0.00 0.00 20 1015.6
20260904190015 27 220 4.8 11.3 0.00 0.00 0.00 20 1015.7
20260904185515 26 211 4.8 12.9 0.00 0.00 0.00 20 1015.5
20260904185015 26 215 3.2 16.1 0.00 0.00 0.00 21 1015.8
20260904184515 26 248 3.2 14.5 0.00 0.00 0.00 21 1015.8
20260904184015 26 205 3.2 11.3 0.00 0.00 0.00 21 1015.9
20260904183515 26 230 3.2 11.3 0.00 0.00 0.00 21 1016.0
20260904183015 26 193 3.2 11.3 0.00 0.00 0.00 22 1016.2
20260904182515 26 274 4.8 11.3 0.00 0.00 0.00 22 1016.0
20260904182015 26 240 4.8 20.9 0.00 0.00 0.00 22 1016.2
20260904181515 26 219 3.2 9.7 0.00 0.00 0.00 22 1016.2
20260904181015 26 248 3.2 8.0 0.00 0.00 0.00 22 1016.3
20260904180515 26 217 4.8 12.9 0.00 0.00 0.00 22 1016.2
20260904180015 26 273 4.8 22.5 0.00 0.00 0.00 21 1016.3
20260904175515 26 240 3.2 14.5 0.00 0.00 0.00 23 1016.4
20260904175015 26 211 3.2 12.9 0.00 0.00 0.00 24 1016.5
20260904174515 25 260 3.2 16.1 0.00 0.00 0.00 26 1016.3
20260904174015 25 214 3.2 8.0 0.00 0.00 0.00 26 1016.3
20260904173515 25 225 4.8 17.7 0.00 0.00 0.00 27 1016.4
20260904173015 25 268 4.8 12.9 0.00 0.00 0.00 27 1016.5
20260904172515 25 221 4.8 17.7 0.00 0.00 0.00 27 1016.5
20260904172015 25 234 3.2 19.3 0.00 0.00 0.00 27 1016.4
20260904171515 25 240 4.8 16.1 0.00 0.00 0.00 27 1016.5
20260904171015 25 245 4.8 19.3 0.00 0.00 0.00 27 1016.5
20260904170515 25 221 4.8 16.1 0.00 0.00 0.00 28 1016.4
20260904170015 25 222 3.2 12.9 0.00 0.00 0.00 27 1016.7
20260904165515 24 227 3.2 8.0 0.00 0.00 0.00 27 1016.5
20260904165015 24 207 3.2 11.3 0.00 0.00 0.00 27 1016.5
20260904164515 24 206 1.6 11.3 0.00 0.00 0.00 27 1016.6
20260904164015 23 234 1.6 8.0 0.00 0.00 0.00 28 1016.6
20260904163515 23 238 1.6 9.7 0.00 0.00 0.00 28 1016.8
20260904163015 23 270 3.2 20.9 0.00 0.00 0.00 27 1016.7
20260904162515 23 244 1.6 4.8 0.00 0.00 0.00 27 1016.8
20260904162015 23 250 3.2 12.9 0.00 0.00 0.00 29 1016.7
20260904161515 23 251 3.2 9.7 0.00 0.00 0.00 30 1016.7
20260904161015 23 289 1.6 8.0 0.00 0.00 0.00 29 1016.7
20260904160515 23 272 1.6 14.5 0.00 0.00 0.00 29 1016.7
20260904160015 23 150 3.2 11.3 0.00 0.00 0.00 29 1016.7
20260904155515 23 217 1.6 9.7 0.00 0.00 0.00 27 1016.5
20260904155015 23 236 1.6 6.4 0.00 0.00 0.00 28 1016.5
20260904154515 23 236 1.6 8.0 0.00 0.00 0.00 27 1016.5
20260904154015 23 237 1.6 6.4 0.00 0.00 0.00 27 1016.6
20260904153515 22 238 0.0 8.0 0.00 0.00 0.00 27 1016.5
20260904153015 22 238 0.0 4.8 0.00 0.00 0.00 28 1016.6
20260904152515 22 238 0.0 9.7 0.00 0.00 0.00 27 1016.6
20260904152015 22 238 0.0 6.4 0.00 0.00 0.00 26 1016.6
20260904151515 22 238 0.0 8.0 0.00 0.00 0.00 27 1016.7
20260904151015 22 240 1.6 6.4 0.00 0.00 0.00 27 1016.6
20260904150515 22 231 1.6 8.0 0.00 0.00 0.00 27 1016.6
20260904150015 22 232 0.0 6.4 0.00 0.00 0.00 26 1016.6
20260904145515 21 233 0.0 4.8 0.00 0.00 0.00 26 1016.6
20260904145015 21 234 0.0 3.2 0.00 0.00 0.00 26 1016.5
20260904144515 21 233 0.0 4.8 0.00 0.00 0.00 25 1016.5
20260904144016 21 233 0.0 4.8 0.00 0.00 0.00 26 1016.5
20260904143515 21 233 0.0 4.8 0.00 0.00 0.00 26 1016.4
20260904143016 21 234 1.6 3.2 0.00 0.00 0.00 26 1016.4